Regional Weather Roundup
Issued by NWS

Home | Current Version | Previous Version | Graphics & Text | Print | Product List | Glossary On
Versions: 1 2 3 4 5 6 7 8 9 10 11 12 13 14 15 16 17 18 19 20 21 22 23 24 25 26 27 28 29 30 31 32 33 34 35 36 37 38 39 40 41 42 43 44 45 46 47 48 49 50
000
ASUS43 KTOP 200908
RWRKS

WEATHER ROUNDUP FOR KANSAS
NATIONAL WEATHER SERVICE GOODLAND KS
400 AM CDT SUN APR 20 2014

NOTE:  "FAIR" INDICATES FEW OR NO CLOUDS BELOW 12,000 FEET WITH NO
SIGNIFICANT WEATHER AND/OR OBSTRUCTIONS TO VISIBILITY.

KSZ001>006-013>018-027>032-041>047-201000-
NORTHWEST KANSAS

CITY           SKY/WX    TMP DP  RH WIND       PRES   REMARKS
GOODLAND       PTCLDY    46  45  96 E3        30.00F FOG
HAYS           CLEAR     54  45  71 S5        29.99S
HILL CITY      MOCLDY    55  51  86 SW5       29.98S
RUSSELL        CLEAR     60  49  66 S15       29.98S
$$

KSZ061>065-074>080-084>089-201000-
SOUTHWEST KANSAS

CITY           SKY/WX    TMP DP  RH WIND       PRES   REMARKS
DODGE CITY     MOCLDY    60  49  66 S16       30.01S
ELKHART          N/A     51  43  74 S9          N/A
GARDEN CITY    MOCLDY    57  49  74 S9        29.99S
GREAT BEND     PTCLDY    61  48  63 S16       29.99F
LIBERAL        MOCLDY    54  46  76 S10       30.02F
PRATT          PTCLDY    59  48  67 S10       30.04S
$$

KSZ066>073-081>083-090>101-201000-
SOUTHEAST KANSAS

CITY           SKY/WX    TMP DP  RH WIND       PRES   REMARKS
CHANUTE        CLOUDY    54  46  74 S6        30.11R
COFFEYVILLE    MOCLDY    59  49  69 S6        30.11R
HUTCHINSON     MOCLDY    61  49  64 S12       30.05S
MEDICINE LODGE   N/A     60  50  69 SE9       30.04F
NEWTON         MOCLDY    63  46  55 S16       30.10S
PARSONS        CLOUDY    61  47  59 S5        30.11S
WICHITA INTL   MOCLDY    58  49  72 S9        30.07S
WICHITA JABRA  PTCLDY    63  50  62 S12       30.07S
WICHITA MCCONL CLOUDY    61  53  74 S13       30.08S
WINFIELD       PTCLDY    62  51  67 S12       30.09S
$$

KSZ007>012-019>026-033>040-048>060-102>105-201000-
NORTHEAST KANSAS

CITY           SKY/WX    TMP DP  RH WIND       PRES   REMARKS
CONCORDIA      MOCLDY    62  49  62 S21       29.98S
EMPORIA        CLOUDY    57  47  69 S9        30.08R
LAWRENCE       CLOUDY    57  47  69 E6        30.08F
MANHATTAN      PTCLDY    64  48  56 S9G18     30.04S
OLATHE IND     MOCLDY    56  45  66 SE6       30.10S
OLATHE EXE     MOCLDY    55  45  68 SE5       30.10S
SALINA         MOCLDY    63  49  60 S13       30.03S
TOPEKA BILLARD CLOUDY    64  47  53 S3        30.08R
TOPEKA FORBES  CLOUDY    63  46  54 S14       30.06S
$$



USA.gov is the U.S. government's official web portal to all federal, state and local government web resources and services.